User: anonymous   Login
Location: Cointrin
(46.2167°N, 6.1167°E)
Time: 11:25:41
(UTC+00:00)
Language:

CSL-04 Debris - Orbit

View from above orbital plane
View from above orbital plane
View from above satellite
View from above satellite

Ground track
Ground track

The orbit data is extracted from the following two-line orbital elements,

1 25733U 99025D   23151.84602651  .00000480  00000-0  26048-3 0  9994
2 25733  98.8212 194.8339 0015964 127.6230 232.6396 14.17041723242374
Epoch (UTC): 31 May 2023 20:18:16
Eccentricity: 0.0015964
inclination: 98.8212°
perigee height: 824 km
apogee height: 847 km
right ascension of ascending node: 194.8339°
argument of perigee: 127.6230°
revolutions per day: 14.17041723
mean anomaly at epoch: 232.6396°
orbit number at epoch: 24237

The dashed part of the orbit path shows where the satellite is in the earth's shadow,  

DLR